Find Qianfan Jigui 06-04

NORAD ID: 62788 Int'l Des: 2025-016 Owner: YUANX Country: CN Constellation: spacesail operational
LEOCIRCULARPOLAR

現在のビュー

3D地球を読み込み中...

Qianfan Jigui 06-04について

説明を読み込み中...

次回通過

Passes for default location (London). Set your location on the main map for personalized predictions.

高度履歴

Loading altitude history...

軌道要素

1 62788U 25016D 26146.29124340 .00000105 00000-0 14395-3 0 9990
2 62788 88.9709 85.9234 0011883 222.2064 137.8173 13.51012215 69460
Epoch: May 26, 2026 • Age: 8 hours

現在のステータス

高度 1064.8 km
速度 7.32 km/s
衛星直下点 2.42°N, 157°E
打ち上げ日 Jan 23, 2025
運用期間 1.3 years
タイプ internet

技術仕様

分類 Payload
質量 267.00 kg
乾燥質量 267.00 kg
総質量 267.00 kg
長さ 0.30 m
直径 3.00 m
スパン 10.00 m
形状 Box+pan
製造者 SECM
バスタイプ Qianfan
フェーズステータス In Orbit
所有者/国 YUANX/CN

Most Searched